Wind_Speed
14 14 14 14 15 14 14 15 14 14 14 13 12 11 11 10 9 8 8 7 7 7 7 8 7 8 9 10 10 10 10 10 9 8 8 7 7 7 7 6 6 6 6 5 6 5 5 5 5
14 15 15 14 15 14 15 15 15 15 14 13 12 12 12 11 9 8 8 8 8 8 9 9 9 9 10 10 10 9 10 9 9 9 8 8 7 7 7 6 6 6 5 5 5 5 5 5 4
14 15 15 15 14 15 16 16 15 15 14 13 13 12 12 11 9 9 9 8 9 9 9 9 9 10 10 10 9 10 10 9 8 8 7 7 7 6 6 6 6 5 5 5 5 5 4 4 3
14 14 14 15 15 16 16 16 16 15 15 14 13 13 12 11 10 10 9 9 10 10 9 9 9 10 11 10 10 10 9 8 7 7 6 6 6 5 5 5 5 4 4 5 5 5 4 4 3
14 14 14 15 16 16 16 17 17 16 15 14 13 13 12 12 11 11 10 10 10 10 10 10 10 11 11 11 10 9 9 8 7 6 6 6 5 5 5 5 5 5 5 5 4 4 3 3 2
13 14 15 15 17 17 18 18 17 16 15 14 14 13 13 12 12 12 11 11 11 12 12 12 11 10 10 10 10 9 9 8 7 6 6 5 5 5 5 5 5 5 4 4 4 3 2 2 2
13 14 15 15 16 17 17 18 17 16 14 13 13 13 13 13 12 12 12 11 11 11 12 12 11 10 10 10 10 9 9 8 7 6 6 5 5 5 5 4 4 4 4 4 4 3 2 1 1
13 14 15 16 16 17 17 18 17 16 15 14 13 13 13 12 12 12 12 11 11 11 11 11 10 10 10 10 9 8 8 7 6 6 6 5 5 5 5 5 4 4 4 4 3 2 1 1 1
13 14 15 16 16 16 17 17 17 16 15 14 13 13 13 13 12 12 11 11 11 10 10 10 10 9 9 9 8 8 7 7 6 6 6 6 6 5 5 4 3 3 2 2 2 2 2 1 1
12 13 14 14 14 14 15 15 16 15 14 13 12 12 13 12 12 12 11 11 11 11 11 11 10 9 9 8 8 8 7 7 6 6 6 6 6 5 4 3 3 3 3 2 2 2 2 2 2
10 11 12 13 13 13 13 13 14 14 13 12 12 12 12 12 11 11 11 11 10 11 11 11 10 9 9 9 8 8 8 8 7 7 6 6 5 5 4 3 3 3 3 3 3 3 3 3 3
8 10 10 10 11 11 12 12 13 13 11 11 11 12 12 11 11 10 10 10 10 10 10 10 10 9 8 8 8 8 7 7 7 7 6 6 6 5 4 4 3 3 3 3 3 3 3 3 2
7 7 8 8 10 10 10 11 12 12 11 10 10 10 10 10 10 10 10 10 10 10 10 10 9 9 8 7 7 7 7 6 6 6 6 5 5 5 4 3 2 2 2 3 3 3 3 3 2
5 6 6 7 8 9 10 10 10 11 10 10 9 9 10 10 10 9 10 10 10 10 9 9 8 8 7 7 6 6 6 5 5 6 6 5 5 5 4 3 2 1 1 1 2 2 2 2 2
3 4 4 5 6 7 8 9 8 9 8 8 8 8 9 9 8 8 9 9 9 9 9 9 8 8 8 7 6 6 5 5 5 5 5 5 5 4 4 3 3 2 1 1 1 1 1 1 2
2 1 1 2 4 5 6 6 6 6 6 7 6 7 7 7 7 7 7 8 9 9 8 8 8 7 7 6 6 6 5 5 4 4 3 4 4 4 4 3 3 2 2 1 1 1 1 2 2
4 2 1 0 2 4 4 4 4 4 5 5 5 5 6 6 5 5 6 7 7 7 7 7 7 7 6 6 6 5 5 4 4 3 3 3 3 4 4 2 2 2 2 2 2 2 2 3 3
6 6 4 3 2 3 3 3 3 2 3 3 4 4 4 4 4 4 5 5 5 5 6 6 6 5 5 5 5 4 4 4 4 3 3 3 3 4 4 3 3 3 3 2 2 3 3 3 3
10 8 7 6 4 5 4 2 3 2 2 2 2 2 2 2 2 3 3 3 3 4 4 5 5 4 4 5 5 4 4 4 4 4 4 4 4 5 5 4 4 4 4 4 4 4 4 4 4
13 11 10 8 6 6 5 4 4 3 2 2 2 2 2 1 0 1 1 1 2 2 3 3 4 4 3 4 5 5 5 5 5 5 5 5 5 5 5 5 4 4 4 5 5 5 6 6 6
14 12 11 11 9 9 9 7 6 5 4 4 4 4 4 3 2 1 1 1 1 1 2 2 3 4 4 4 4 5 5 6 6 6 6 6 6 6 6 6 5 6 6 6 6 6 7 7 7
15 14 14 13 13 12 11 10 8 8 7 7 6 5 5 4 2 2 2 3 2 1 1 2 3 4 5 5 4 5 5 6 7 7 7 7 7 7 7 7 7 7 8 7 8 8 8 8 9
15 15 15 15 15 14 12 12 10 9 9 8 7 7 6 6 4 3 2 3 3 2 2 3 3 5 5 5 6 6 6 7 8 8 8 8 8 8 8 8 8 9 9 9 9 9 9 10 10
17 17 17 17 17 16 14 14 11 11 12 10 9 8 8 8 7 6 5 4 4 5 5 5 5 5 6 6 6 7 7 8 9 9 9 9 10 9 9 9 9 10 10 10 10 11 11 11 12
18 18 18 19 18 15 15 15 12 12 12 12 10 10 9 9 9 8 7 6 6 7 7 7 7 7 7 7 7 7 8 9 10 10 10 11 11 11 11 11 11 11 11 12 12 12 13 13 13
19 18 18 19 18 16 16 15 13 13 13 12 12 11 11 11 10 10 10 10 9 8 8 8 8 8 8 8 8 8 9 10 10 11 11 12 12 12 12 12 12 13 13 14 14 14 14 14 14
21 20 19 20 19 17 17 16 14 14 12 12 12 12 12 12 12 12 11 11 10 10 10 10 10 10 10 10 9 10 10 11 11 12 12 13 14 14 14 14 15 15 15 15 14 14 15 16 16
24 22 21 21 20 20 18 17 16 15 14 13 13 13 13 13 13 13 13 13 13 13 12 12 12 12 12 11 11 11 12 13 13 14 14 15 15 16 15 16 16 16 16 16 16 16 16 16 16
25 24 24 24 23 23 22 19 17 16 16 16 15 14 13 14 14 14 14 14 14 14 14 13 13 13 13 13 13 13 14 15 15 16 17 17 18 17 17 17 18 18 18 18 18 18 18 17 18
27 26 25 25 25 25 24 21 19 17 17 17 16 15 14 14 15 15 15 15 15 15 15 15 15 15 14 15 16 15 16 16 17 18 19 20 20 20 20 20 20 20 20 20 20 20 20 20 20
Wind_Direction
68 66 68 71 69 68 69 68 65 60 60 63 65 65 64 62 60 64 70 75 75 80 88 90 92 98 99 99 101 101 104 107 106 107 109 108 108 97 91 91 87 88 91 95 102 102 107 112 109
71 71 71 73 74 71 70 68 64 60 58 60 64 64 61 62 64 68 74 75 79 87 87 88 87 95 98 95 96 99 105 104 102 101 103 104 102 96 90 88 90 90 91 97 106 104 104 110 111
70 74 74 73 73 71 70 68 66 63 60 61 62 63 62 62 70 71 77 78 85 86 88 90 89 90 93 92 93 95 101 99 102 99 100 102 99 94 89 89 92 92 91 93 104 105 106 111 116
74 74 72 70 70 70 67 66 66 63 60 60 61 62 62 61 66 73 81 82 85 86 87 93 96 96 97 94 95 96 95 98 96 95 99 99 95 92 88 85 88 92 98 100 104 110 113 109 114
76 74 71 69 68 64 63 62 63 62 60 59 63 64 61 64 68 76 83 85 85 84 83 94 101 99 96 94 94 99 97 99 100 94 95 97 90 89 90 89 87 91 101 98 97 98 109 110 111
77 74 72 68 65 63 62 61 63 63 62 60 63 66 66 69 73 77 80 86 85 83 86 93 99 102 98 95 93 94 94 95 99 95 88 86 82 86 86 88 90 93 96 95 90 90 108 122 124
78 72 70 67 64 64 62 61 62 64 63 62 65 68 68 70 75 80 81 84 85 86 89 94 98 99 97 94 91 88 89 90 90 91 82 75 81 79 81 85 89 84 84 82 88 94 105 109 107
76 69 69 70 67 63 63 60 62 65 61 60 63 66 70 72 76 80 81 82 84 86 89 92 93 92 91 89 88 87 84 84 81 84 82 79 86 90 84 80 81 77 73 63 74 87 92 103 93
76 70 70 70 68 62 61 60 61 61 60 59 59 61 67 72 76 78 79 81 83 84 85 87 88 90 91 90 88 88 88 82 77 77 81 81 80 83 80 80 74 69 63 60 67 73 78 78 78
78 68 68 68 67 63 60 59 59 57 58 59 60 62 65 70 73 76 78 79 82 82 83 83 84 86 87 90 91 89 88 83 78 76 77 70 68 73 80 74 71 57 54 57 61 73 77 76 78
79 71 72 69 65 61 58 55 58 57 58 58 59 62 64 65 69 72 76 78 80 81 81 82 85 84 83 86 90 91 89 83 76 73 75 69 66 72 79 79 75 65 57 57 65 74 75 68 75
87 80 75 66 59 58 54 52 55 54 57 55 58 61 62 63 66 67 73 78 80 79 78 79 82 82 79 82 86 86 85 81 76 71 69 64 62 65 71 76 80 78 71 67 65 62 60 64 71
96 91 82 65 57 56 53 52 53 53 57 53 57 60 63 63 67 69 72 75 77 75 74 75 78 79 81 82 84 84 83 77 71 65 65 60 50 55 60 59 67 81 81 81 71 63 55 60 61
103 94 82 69 55 51 55 57 55 53 57 55 55 57 60 64 66 70 74 75 76 74 71 71 76 77 79 84 84 81 77 71 63 59 59 53 49 51 51 50 57 57 58 80 66 46 48 57 45
125 104 91 71 57 45 50 56 54 48 52 53 52 58 60 62 61 66 70 70 70 70 70 71 75 75 76 82 81 77 70 64 60 56 52 53 50 44 46 40 38 37 42 13 351 345 359 7 7
191 150 94 66 48 36 36 44 43 42 44 48 54 64 64 63 60 62 65 68 66 66 68 71 72 72 71 73 73 66 59 60 52 49 43 42 37 32 31 27 22 29 30 8 345 310 317 323 327
224 230 237 1 14 20 18 27 41 41 43 45 52 60 62 66 68 65 60 65 64 64 67 68 67 68 64 65 64 58 52 47 39 41 35 26 17 5 3 358 350 353 354 347 318 295 297 296 304
234 232 236 250 296 340 349 9 40 32 28 35 35 46 64 73 74 72 63 62 59 61 62 61 61 60 57 53 50 44 31 23 20 20 13 3 356 350 349 339 325 322 320 323 312 295 298 287 287
239 237 244 257 272 294 306 321 332 7 357 8 3 10 29 64 67 60 60 58 53 50 51 52 52 52 49 41 31 22 14 10 5 357 349 338 333 331 325 323 312 304 306 307 303 295 288 275 279
235 239 248 253 259 271 277 287 298 308 307 308 313 322 321 297 272 35 48 47 44 35 36 42 43 44 41 30 15 6 1 357 348 341 332 326 322 319 318 313 309 302 304 303 299 294 285 279 279
234 239 245 246 251 262 272 273 278 284 283 294 300 297 291 276 275 276 310 339 28 18 24 27 22 18 17 13 3 354 349 346 344 338 333 329 320 315 316 311 306 302 298 298 294 292 290 288 286
239 242 245 247 253 262 269 271 267 275 272 277 290 291 291 289 281 289 320 320 304 327 351 356 359 355 352 351 350 347 343 339 339 337 330 323 324 316 309 306 303 301 296 294 294 289 290 290 289
243 244 247 252 259 262 266 272 264 267 270 278 279 282 280 275 267 266 291 307 294 299 302 314 329 336 337 334 333 332 331 331 331 329 325 321 318 317 311 306 302 299 297 293 291 288 290 290 289
241 245 249 255 260 262 268 271 267 268 277 278 273 272 269 269 265 267 277 292 296 301 300 301 306 316 322 325 324 319 318 317 321 320 316 313 311 308 304 302 301 298 295 292 290 288 289 289 287
241 245 250 255 259 264 267 268 270 272 276 275 274 270 268 266 266 273 275 277 286 293 295 298 302 305 311 314 313 311 311 311 311 312 312 310 307 304 303 302 298 296 294 291 289 286 287 288 288
244 247 253 260 264 267 265 266 270 271 271 273 273 268 268 268 265 270 272 273 277 284 286 288 291 293 300 303 305 308 309 309 308 309 309 308 306 303 301 300 296 293 293 291 291 287 285 286 288
243 247 253 259 263 263 263 262 266 269 271 273 273 272 270 269 266 264 266 271 272 274 277 278 281 285 290 294 300 306 307 309 307 308 308 308 307 302 297 295 293 293 293 292 291 290 291 289 288
242 244 248 253 258 260 262 261 265 268 272 274 276 276 274 270 266 264 267 270 270 271 275 278 283 282 284 289 295 299 302 306 306 305 306 306 303 300 295 292 291 291 289 289 290 291 290 292 292
241 244 246 251 255 261 262 262 266 267 271 273 277 281 276 270 268 266 266 269 270 271 274 278 280 281 282 287 293 296 300 301 301 303 305 303 300 298 295 294 291 290 291 291 290 289 289 290 290
243 245 247 252 256 259 262 264 265 266 271 275 277 279 274 268 267 266 266 269 271 271 273 277 283 282 285 289 290 293 296 299 299 300 301 302 299 296 293 293 292 291 289 287 286 286 287 288 289
Height
5886 5885 5885 5885 5884 5883 5881 5880 5879 5878 5878 5877 5877 5876 5876 5876 5877 5879 5876 5874 5874 5874 5874 5875 5875 5875 5875 5875 5876 5876 5877 5878 5880 5881 5882 5883 5884 5885 5885 5886 5886 5887 5888 5888 5889 5890 5890 5891 5892
5888 5888 5888 5887 5885 5884 5884 5882 5881 5880 5880 5879 5878 5878 5878 5877 5877 5876 5875 5875 5875 5875 5875 5876 5876 5875 5876 5876 5877 5878 5878 5879 5881 5882 5883 5884 5885 5885 5886 5887 5887 5888 5888 5889 5890 5890 5891 5892 5892
5891 5890 5891 5889 5887 5886 5885 5884 5882 5881 5881 5881 5880 5880 5879 5878 5878 5877 5877 5876 5876 5876 5877 5877 5877 5877 5878 5878 5879 5879 5880 5881 5882 5883 5884 5884 5885 5886 5887 5887 5888 5888 5889 5890 5890 5891 5892 5892 5893
5893 5893 5893 5891 5889 5888 5887 5886 5884 5883 5883 5882 5882 5882 5881 5880 5879 5879 5878 5878 5878 5878 5877 5877 5877 5879 5879 5880 5880 5881 5881 5882 5883 5884 5884 5885 5886 5887 5888 5888 5889 5889 5890 5890 5891 5892 5892 5893 5893
5895 5895 5894 5893 5891 5890 5889 5887 5886 5885 5885 5884 5884 5883 5883 5882 5881 5880 5880 5880 5880 5879 5877 5875 5878 5880 5881 5882 5882 5882 5882 5883 5884 5885 5885 5886 5887 5887 5888 5889 5889 5889 5890 5891 5891 5892 5892 5893 5893
5898 5897 5896 5895 5893 5892 5891 5890 5888 5887 5887 5887 5886 5885 5885 5884 5884 5883 5882 5882 5882 5881 5879 5878 5880 5882 5883 5883 5884 5884 5884 5884 5885 5886 5886 5887 5887 5888 5889 5889 5890 5890 5890 5891 5891 5892 5892 5892 5893
5900 5899 5897 5897 5896 5895 5894 5892 5891 5890 5889 5889 5888 5888 5887 5886 5886 5885 5885 5885 5884 5884 5883 5883 5884 5884 5885 5885 5886 5886 5886 5886 5886 5887 5888 5888 5888 5889 5889 5889 5890 5891 5891 5891 5892 5892 5892 5893 5893
5901 5901 5899 5899 5898 5897 5896 5895 5894 5893 5892 5892 5891 5890 5889 5889 5888 5888 5887 5887 5887 5886 5886 5886 5886 5887 5887 5887 5887 5887 5888 5888 5888 5888 5888 5889 5889 5890 5890 5890 5891 5891 5892 5892 5892 5892 5892 5893 5893
5903 5904 5901 5901 5900 5900 5898 5897 5896 5896 5895 5894 5894 5893 5892 5891 5890 5890 5889 5889 5889 5889 5888 5888 5888 5888 5889 5889 5889 5889 5889 5890 5890 5889 5889 5890 5890 5890 5891 5891 5892 5892 5892 5892 5892 5893 5893 5893 5893
5905 5904 5904 5903 5902 5901 5900 5899 5898 5898 5897 5896 5896 5895 5894 5893 5893 5892 5891 5891 5891 5891 5890 5890 5890 5890 5890 5891 5891 5891 5891 5891 5891 5890 5891 5891 5891 5891 5892 5892 5892 5893 5893 5893 5893 5893 5893 5893 5893
5906 5906 5905 5905 5904 5903 5902 5901 5900 5899 5899 5899 5898 5897 5896 5896 5895 5894 5894 5893 5893 5892 5892 5891 5891 5891 5892 5892 5892 5892 5892 5892 5892 5892 5892 5892 5892 5892 5893 5893 5893 5893 5893 5893 5893 5893 5893 5893 5893
5908 5908 5907 5907 5906 5905 5904 5903 5902 5901 5901 5901 5900 5899 5898 5898 5897 5896 5896 5895 5895 5894 5894 5893 5893 5893 5893 5893 5893 5894 5894 5894 5894 5893 5893 5893 5893 5893 5893 5893 5894 5894 5894 5894 5894 5894 5894 5894 5894
5909 5909 5908 5908 5907 5906 5905 5905 5904 5903 5903 5902 5901 5901 5900 5900 5899 5898 5898 5897 5896 5896 5895 5895 5894 5894 5894 5895 5895 5895 5895 5895 5894 5894 5894 5894 5894 5894 5894 5894 5894 5894 5894 5894 5895 5895 5895 5894 5894
5910 5910 5909 5909 5908 5907 5907 5906 5906 5905 5904 5904 5903 5903 5902 5901 5901 5900 5900 5899 5898 5897 5897 5896 5896 5896 5896 5896 5896 5896 5896 5896 5895 5895 5895 5895 5894 5894 5895 5894 5894 5894 5895 5895 5895 5895 5895 5895 5895
5910 5910 5910 5910 5909 5909 5909 5908 5907 5907 5906 5905 5905 5904 5903 5903 5903 5902 5901 5900 5900 5899 5898 5898 5898 5897 5897 5897 5897 5897 5897 5897 5896 5896 5896 5895 5895 5895 5895 5895 5895 5895 5895 5895 5895 5895 5895 5895 5894
5910 5911 5911 5911 5910 5910 5911 5909 5908 5907 5907 5906 5906 5905 5905 5904 5904 5903 5903 5902 5901 5901 5900 5899 5899 5899 5898 5898 5898 5898 5898 5897 5897 5897 5896 5896 5896 5895 5895 5895 5895 5895 5894 5894 5895 5895 5895 5894 5894
5910 5910 5911 5911 5910 5910 5911 5910 5909 5907 5907 5907 5907 5906 5906 5906 5905 5904 5903 5903 5903 5902 5901 5901 5900 5900 5899 5899 5899 5898 5898 5898 5897 5897 5897 5896 5896 5895 5895 5895 5894 5894 5894 5894 5894 5894 5894 5894 5893
5909 5909 5910 5910 5910 5910 5910 5910 5909 5908 5907 5908 5907 5907 5907 5906 5906 5904 5904 5903 5903 5903 5902 5902 5901 5900 5900 5900 5899 5899 5899 5898 5898 5897 5896 5896 5895 5895 5895 5894 5894 5894 5893 5893 5893 5893 5893 5892 5892
5907 5908 5909 5909 5909 5909 5909 5909 5909 5908 5908 5908 5908 5907 5907 5906 5906 5905 5904 5904 5904 5903 5903 5902 5902 5901 5900 5900 5900 5899 5899 5898 5897 5897 5896 5895 5895 5894 5894 5894 5893 5893 5892 5892 5892 5891 5891 5891 5891
5906 5907 5908 5908 5908 5908 5908 5908 5908 5908 5908 5907 5907 5907 5906 5906 5905 5905 5904 5904 5904 5904 5903 5903 5902 5901 5901 5900 5900 5899 5899 5898 5897 5896 5895 5894 5894 5893 5893 5892 5892 5892 5891 5891 5890 5890 5890 5889 5889
5904 5905 5906 5907 5907 5906 5907 5907 5907 5907 5907 5907 5907 5906 5906 5905 5905 5904 5904 5904 5903 5903 5902 5902 5902 5901 5900 5900 5899 5899 5898 5897 5896 5895 5894 5893 5892 5892 5891 5891 5890 5890 5890 5889 5889 5888 5888 5887 5887
5901 5903 5904 5904 5904 5905 5905 5905 5906 5906 5906 5906 5906 5905 5905 5904 5904 5903 5903 5903 5902 5902 5902 5902 5901 5901 5900 5899 5899 5898 5897 5896 5895 5894 5893 5892 5892 5891 5890 5889 5889 5888 5888 5887 5887 5886 5885 5885 5884
5899 5901 5901 5901 5901 5902 5903 5903 5904 5904 5904 5904 5904 5904 5903 5903 5903 5903 5902 5902 5901 5901 5900 5900 5900 5900 5899 5898 5898 5897 5896 5895 5894 5893 5892 5891 5890 5889 5888 5888 5887 5886 5886 5885 5885 5884 5883 5883 5882
5896 5897 5897 5898 5898 5899 5900 5900 5901 5901 5902 5902 5902 5902 5902 5901 5901 5901 5901 5900 5900 5900 5899 5899 5899 5898 5898 5897 5896 5896 5895 5894 5893 5892 5890 5889 5888 5887 5886 5885 5885 5884 5883 5882 5882 5881 5881 5880 5879
5893 5894 5894 5894 5895 5896 5897 5896 5898 5899 5899 5899 5899 5899 5899 5899 5899 5899 5899 5898 5898 5897 5897 5897 5897 5896 5896 5895 5895 5894 5893 5892 5891 5890 5889 5887 5886 5885 5884 5883 5882 5881 5880 5880 5879 5878 5878 5877 5876
5888 5890 5891 5891 5892 5893 5893 5893 5896 5896 5895 5895 5896 5896 5896 5897 5897 5896 5896 5895 5895 5895 5895 5894 5894 5894 5893 5893 5892 5892 5891 5890 5889 5887 5886 5885 5884 5882 5881 5880 5879 5878 5877 5876 5876 5875 5874 5874 5873
5884 5885 5887 5888 5887 5888 5889 5890 5891 5892 5892 5893 5893 5893 5893 5894 5894 5894 5893 5893 5892 5892 5892 5892 5891 5891 5890 5890 5890 5889 5888 5887 5886 5884 5883 5882 5881 5880 5878 5877 5876 5875 5874 5873 5872 5871 5870 5869 5869
5879 5881 5882 5883 5883 5883 5885 5886 5888 5888 5888 5889 5889 5889 5889 5890 5890 5890 5890 5889 5889 5889 5889 5888 5888 5888 5887 5887 5886 5886 5885 5884 5882 5881 5880 5878 5877 5876 5874 5873 5872 5870 5869 5869 5868 5867 5866 5865 5864
5874 5875 5876 5877 5878 5879 5880 5884 5884 5884 5884 5885 5885 5885 5885 5885 5886 5886 5885 5885 5885 5885 5885 5884 5884 5883 5883 5883 5882 5882 5881 5880 5879 5877 5876 5874 5873 5871 5870 5869 5868 5866 5865 5864 5863 5862 5861 5860 5859
5868 5869 5871 5873 5873 5874 5875 5881 5880 5880 5880 5881 5881 5881 5881 5881 5881 5881 5881 5881 5881 5881 5881 5880 5880 5879 5879 5878 5878 5878 5877 5876 5874 5873 5871 5870 5868 5867 5866 5864 5863 5862 5860 5859 5858 5857 5856 5855 5854